Location: Unspecified
(0.0000°N, 0.0000°E)
Time: 11:04:42
(UTC+00:00)

Explorer 7 - All Passes

Search period start: 28 August 2014 00:00
Search period end: 07 September 2014 00:00
Orbit: 492 x 706 km, 50.3° (Epoch: 25 August)

Date Brightness Start Highest point End Pass type
(mag) Time Alt. Az. Time Alt. Az. Time Alt. Az.
28 Aug - 10:13:19 10° NW 10:17:28 61° SW 10:21:56 10° SSE daylight
28 Aug - 20:40:07 10° SSE 20:42:47 15° SE 20:45:21 10° E night (unlit)
28 Aug - 22:19:23 10° WSW 22:23:39 38° NW 22:27:39 10° NNE night (unlit)
29 Aug - 08:44:15 10° N 08:47:12 19° NE 08:50:18 10° E daylight
29 Aug - 10:24:24 10° WNW 10:27:55 25° SW 10:31:37 10° S daylight
29 Aug - 20:49:01 10° SSW 20:53:17 33° SE 20:57:18 10° ENE night (unlit)
29 Aug - 22:31:07 10° W 22:33:59 16° NW 22:36:45 10° NNW night (unlit)
30 Aug - 08:53:37 10° NNW 08:57:32 46° NE 09:01:44 10° SE daylight
30 Aug - 10:37:23 10° WSW 10:38:26 11° SW 10:39:31 10° SW daylight
30 Aug - 20:58:56 10° SSW 21:03:42 80° SE 21:08:07 10° NE night (unlit)
31 Aug - 09:03:51 10° NW 09:07:53 66° SW 09:12:15 10° SSE daylight
31 Aug - 19:30:33 10° SSE 19:33:08 14° SE 19:35:39 10° E visible
31 Aug - 21:09:34 10° SW 21:14:03 42° NW 21:18:14 10° NNE night (unlit)
01 Sep - 07:35:00 10° NNE 07:37:39 17° NE 07:40:24 10° E daylight
01 Sep - 09:14:51 10° WNW 09:18:19 26° SW 09:21:59 10° S daylight
01 Sep - 19:39:20 10° S 19:43:38 31° SE 19:47:42 10° ENE visible
01 Sep - 21:21:08 10° W 21:24:22 18° NW 21:27:28 10° N night (unlit)
02 Sep - 07:44:12 10° NNW 07:47:58 42° NE 07:51:58 10° SE daylight
02 Sep - 09:27:35 10° WSW 09:28:49 11° SW 09:30:05 10° SSW daylight
02 Sep - 19:49:11 10° SSW 19:54:03 74° SE 19:58:35 10° NE visible
03 Sep - 07:54:21 10° NW 07:58:18 72° SW 08:02:33 10° SSE daylight
03 Sep - 18:21:00 10° SSE 18:23:27 14° SE 18:25:52 10° E visible
03 Sep - 19:59:45 10° SW 20:04:23 46° NW 20:08:45 10° NNE visible
04 Sep - 06:25:45 10° NNE 06:28:04 15° NE 06:30:27 10° E daylight
04 Sep - 08:05:16 10° WNW 08:08:43 27° SW 08:12:21 10° S daylight
04 Sep - 18:29:38 10° S 18:33:56 30° SE 18:38:02 10° ENE visible
04 Sep - 20:11:09 10° WSW 20:14:43 21° NW 20:18:07 10° N visible
05 Sep - 06:34:46 10° NNW 06:38:23 37° NE 06:42:12 10° ESE daylight
05 Sep - 08:17:48 10° WSW 08:19:12 11° SW 08:20:37 10° SSW daylight
05 Sep - 18:39:25 10° SSW 18:44:21 69° SE 18:48:59 10° NE visible
06 Sep - 06:44:50 10° NW 06:48:42 78° SW 06:52:50 10° SSE daylight
06 Sep - 17:11:27 10° SSE 17:13:44 13° SE 17:15:59 10° ESE daylight
06 Sep - 18:49:54 10° SW 18:54:41 51° NW 18:59:13 10° NNE visible
